COSMOS 970 DEB

Satellite information

Favourite Embed

Satellite Type and Status

DEBRISIN ORBIT

Key statistics

Satellite COSMOS 970 DEB at a glance.

Uptime

17525

Days in orbit

Revolutions

≈ 13.6

Per day

Orbit

LEO

Low Earth Orbit

Inclination

65.8

Latest

Satellite identification and parameters

Extended collection of information and parameters for COSMOS 970 DEB.

Object identification

Identified? True

Debris? True

Object name: COSMOS 970 DEB

International designator: 1977-121J

Object number (NORAD): 10567

Object ID (CCSDS): 10567

Country: COMMONWEALTH OF INDEPENDENT STATES (CIS)

Current information (Y/N): Y

RCS size: SMALL

Orbital parameters

Period: 106.238 minutes

Inclination: 65.7921 deg

SMA: 7430.417 km

Apoapsis: 1132.294 km

Periapsis: 972.27 km

RAAN: 188.3648 deg

Eccentricy: 0.01076815

Argument of periapsis: 211.7215 deg

Mean anomaly: 211.5716 deg

Mean motion: 13.55448331 rev/day

Mean motion (dot): 0.00000016 rev/day2

B* drag term: 0.00012956454 1/REarth

Two-line elements (TLE)

Creation date: Dec. 14, 2025, 3:07 a.m.

Reference frame: TEME

Reference center: EARTH

Epoch: Dec. 13, 2025, 4:18 p.m. UTC

TLE line 0: 0 COSMOS 970 DEB

TLE line 1: 1 10567U 77121J 25347.67932192 .00000016 00000-0 12956-3 0 9990

TLE line 2: 2 10567 65.7921 188.3648 0107682 211.7215 211.5716 13.55448331372699

Live tracking on map

Real-time ground track for satellite COSMOS 970 DEB.

In-orbit conjunctions

A list of the most updated potential collisions computed for object COSMOS 970 DEB.

Target Orbit TCA Probability of collision Miss distance Type
FENGYUN 1C DEB SSO 2025-01-06 13:45:10 0.0002151361 184.0 (m) DEBRIS
DELTA 1 DEB SSO 2024-11-07 19:19:06 0.0005520936 123.0 (m) DEBRIS
SL-8 R/B LEO 2024-06-13 12:39:10 0.0001977721 172.0 (m) ROCKET BODY

Associated space launch

Second generation ASAT satellite

COSMOS 970 DEB was lifted into orbit during the mission ‘Tsiklon-2 | IS-A 8’, on board a Tsiklon-2 space rocket.

The launch took place on Dec. 21, 1977, 10:35 a.m. from 90.

For more information about the launch, click the button.

Launch to space Tsiklon-2 | IS-A 8
Tsiklon-2 | IS-A 8

Agency: N/A

Status: Launch Successful

Launch date: Dec. 21, 1977, 10:35 a.m. UTC

Rocket: Tsiklon-2

Launch pad: 90

Location: Baikonur Cosmodrome, Republic of Kazakhstan

...

Latest news about this satellite

There are no fresh news available about this satellite. Check back as we update our databases every day.


Newsletter sign-up

Weekly statistics, charts and insights to help you stay on top of the space industry.